User: anonymous   Login
Location: Auttagershofen
(48.1940°N, 10.0237°E)
Time: 14:16:06
(UTC+00:00)
Language:

SJ-12 - Orbit

View from above orbital plane
View from above orbital plane
View from above satellite
View from above satellite

Ground track
Ground track

The orbit is defined by the following mean orbital elements,

1 36596U          26067.22070733 +.00000000 +00000-0 +45621-3 0 00008
2 36596  97.7697  82.5583 0008576  86.2494 273.9718 15.15688513    06
Epoch (UTC): 08 March 2026 05:17:49
Eccentricity: 0.0008576
inclination: 97.7697°
perigee height: 513 km
apogee height: 525 km
right ascension of ascending node: 82.5583°
argument of perigee: 86.2494°
revolutions per day: 15.15688513
mean anomaly at epoch: 273.9718°

The dashed part of the orbit path shows where the satellite is in the earth's shadow,  

DLR